Location: Newark
(41.0400°S, 62.7845°W)
Time: 12:11:44
(UTC+00:00)

Transit 4A - All Passes

Search period start: 08 December 2021 00:00
Search period end: 18 December 2021 00:00
Orbit: 866 x 978 km, 66.8° (Epoch: 07 December)

Date Brightness Start Highest point End Pass type
(mag) Time Alt. Az. Time Alt. Az. Time Alt. Az.
08 Dec - 09:25:50 10° N 09:31:24 33° ENE 09:36:55 10° SE daylight
08 Dec - 11:11:36 10° NW 11:17:37 44° SW 11:23:34 10° SSE daylight
08 Dec - 13:04:04 10° SW 13:05:40 11° SSW 13:07:16 10° SSW daylight
08 Dec - 18:28:28 10° SSW 18:33:58 36° SE 18:39:19 10° ENE daylight
08 Dec - 20:14:52 10° SW 20:20:18 38° WNW 20:25:36 10° N daylight
09 Dec - 09:34:28 10° N 09:40:33 49° ENE 09:46:32 10° SE daylight
09 Dec - 11:21:32 10° WNW 11:27:07 32° SW 11:32:38 10° SSE daylight
09 Dec - 16:53:25 10° SSE 16:55:32 12° SSE 16:57:39 10° SE daylight
09 Dec - 18:37:35 10° SSW 18:43:25 51° SE 18:49:05 10° NE daylight
09 Dec - 20:24:40 10° SW 20:29:22 25° WNW 20:33:59 10° NNW daylight
10 Dec - 08:03:31 10° ENE 08:04:27 10° E 08:05:22 10° E visible
10 Dec - 09:43:26 10° NNW 09:49:45 73° ENE 09:55:59 10° SSE daylight
10 Dec - 11:31:45 10° W 11:36:42 24° SW 11:41:35 10° S daylight
10 Dec - 17:01:48 10° S 17:05:21 16° SE 17:08:51 10° ESE daylight
10 Dec - 18:46:48 10° SSW 18:52:47 75° ESE 18:58:35 10° NE daylight
10 Dec - 20:34:55 10° WSW 20:38:21 16° WNW 20:41:46 10° NW daylight
11 Dec - 08:09:31 10° NE 08:13:23 17° ENE 08:17:14 10° ESE daylight
11 Dec - 09:52:41 10° NNW 09:59:02 79° WSW 10:05:18 10° SSE daylight
11 Dec - 11:42:19 10° W 11:46:23 18° SW 11:50:25 10° S daylight
11 Dec - 17:10:34 10° S 17:15:03 21° SE 17:19:27 10° E daylight
11 Dec - 18:56:06 10° SSW 19:02:03 75° WNW 19:07:51 10° NNE daylight
12 Dec - 08:17:21 10° NNE 08:22:25 26° ENE 08:27:26 10° SE daylight
12 Dec - 10:02:12 10° NW 10:08:24 55° SW 10:14:30 10° SSE daylight
12 Dec - 11:53:20 10° WSW 11:56:10 13° SW 11:58:59 10° S daylight
12 Dec - 17:19:30 10° SSW 17:24:40 29° SE 17:29:42 10° ENE daylight
12 Dec - 19:05:33 10° SW 19:11:15 50° WNW 19:16:49 10° N daylight
13 Dec - 08:25:44 10° N 08:31:30 38° ENE 08:37:12 10° SE daylight
13 Dec - 10:11:58 10° WNW 10:17:50 39° SW 10:23:37 10° SSE daylight
13 Dec - 17:28:33 10° SSW 17:34:10 40° SE 17:39:39 10° ENE daylight
13 Dec - 19:15:10 10° SW 19:20:22 33° WNW 19:25:28 10° N daylight
14 Dec - 08:34:29 10° N 08:40:40 57° ENE 08:46:45 10° SE daylight
14 Dec - 10:22:01 10° WNW 10:27:22 29° SW 10:32:40 10° SSE daylight
14 Dec - 15:53:11 10° S 15:55:53 13° SE 15:58:33 10° ESE daylight
14 Dec - 17:37:42 10° SSW 17:43:36 59° ESE 17:49:20 10° NE daylight
14 Dec - 19:25:04 10° WSW 19:29:24 21° WNW 19:33:41 10° NNW daylight
15 Dec - 07:02:00 10° NE 07:04:28 12° E 07:06:56 10° ESE visible
15 Dec - 08:43:34 10° NNW 08:49:54 83° ENE 08:56:09 10° SSE daylight
15 Dec - 10:32:20 10° W 10:36:59 21° SW 10:41:35 10° S daylight
15 Dec - 16:01:44 10° S 16:05:39 17° SE 16:09:29 10° E daylight
15 Dec - 17:46:57 10° SSW 17:52:55 85° ESE 17:58:45 10° NNE daylight
15 Dec - 19:35:38 10° WSW 19:38:23 14° WNW 19:41:06 10° NW daylight
16 Dec - 07:09:05 10° NNE 07:13:27 20° ENE 07:17:46 10° ESE visible
16 Dec - 08:52:55 10° NW 08:59:13 70° WSW 09:05:25 10° SSE daylight
16 Dec - 10:43:03 10° WSW 10:46:42 16° SW 10:50:20 10° S daylight
16 Dec - 16:10:35 10° S 16:15:19 24° SE 16:19:57 10° E daylight
16 Dec - 17:56:17 10° SW 18:02:11 65° WNW 18:07:55 10° NNE daylight
17 Dec - 07:17:09 10° NNE 07:22:30 30° ENE 07:27:47 10° SE visible
17 Dec - 09:02:31 10° NW 09:08:36 49° SW 09:14:36 10° SSE daylight
17 Dec - 10:54:21 10° SW 10:56:31 12° SSW 10:58:41 10° SSW daylight
17 Dec - 16:19:34 10° SSW 16:24:53 32° SE 16:30:05 10° ENE daylight
17 Dec - 18:05:48 10° SW 18:11:20 43° WNW 18:16:46 10° N daylight
